Date String (YYYY-MM-DD hh:mm:ss) UTC,Instrument flags,Ambient pressure (hPa),Sample flow (lpm),Bypass flow (lpm),Sample temperature (°C),Ambient temperature (°C),ASC tube jacket temperature (°C),LED temperature (°C),Box temperature (°C),Sample RH (%),Span deviation,Mass concentration (μg/m³),Mass concentration (μg/m³),Mass concentration (μg/m³)
DateTimeUTC,F1_M11,P_M11,Q1_M11,Q2_M11,T1_M11,T2_M11,T3_M11,T4_M11,T5_M11,U1_M11,ZSPAN_M11,X0_M11,X2_M11,X1_M11
2022-10-10 11:00:00,,0828.7,5.01,0.00,27.8,26.2,00.0,36.7,29.7,11.3,0000.0,0007.79,0004.28,0003.87
2022-10-10 11:01:00,,0828.7,5.00,0.00,27.9,26.3,00.0,36.7,29.7,11.4,0000.0,0007.81,0004.25,0003.84
2022-10-10 11:02:00,,0828.7,4.99,0.00,27.9,26.3,00.0,36.7,29.7,11.6,0000.0,0007.40,0004.23,0003.82
2022-10-10 11:03:00,,0828.8,5.01,0.00,27.8,26.2,00.0,36.7,29.7,11.6,0000.0,0007.36,0004.27,0003.83
2022-10-10 11:04:00,,0828.8,5.01,0.00,27.8,26.2,00.0,36.7,29.7,11.7,0000.0,0007.33,0004.27,0003.85
2022-10-10 11:05:00,,0828.7,4.99,0.00,27.8,26.2,00.0,36.7,29.7,11.7,0000.0,0007.34,0004.27,0003.87
2022-10-10 11:06:00,,0828.8,5.01,0.00,27.8,26.2,00.0,36.7,29.7,11.7,0000.0,0006.69,0004.29,0003.91
2022-10-10 11:07:00,,0829.1,5.00,0.00,27.8,26.2,00.0,36.7,29.7,11.7,0000.0,0006.70,0004.33,0003.94
2022-10-10 11:08:00,,0829.0,4.99,0.00,27.8,26.2,00.0,36.7,29.7,11.7,0000.0,0007.00,0004.39,0003.98
2022-10-10 11:09:00,,0828.8,5.01,0.00,27.8,26.2,00.0,36.7,29.6,11.6,0000.0,0007.77,0004.48,0004.02
2022-10-10 11:10:00,,0829.3,5.00,0.00,27.8,26.2,00.0,36.6,29.7,11.6,0000.0,0007.78,0004.51,0004.05
2022-10-10 11:11:00,,0829.4,4.99,0.00,27.8,26.2,00.0,36.6,29.7,11.5,0000.0,0007.77,0004.51,0004.07
2022-10-10 11:12:00,,0829.4,5.01,0.00,27.8,26.2,00.0,36.6,29.7,11.4,0000.0,0007.74,0004.52,0004.09
2022-10-10 11:13:00,,0829.3,4.99,0.00,27.8,26.2,00.0,36.6,29.7,11.4,0000.0,0007.79,0004.54,0004.11
2022-10-10 11:14:00,,0829.3,5.02,0.00,27.8,26.2,00.0,36.6,29.6,11.4,0000.0,0007.84,0004.55,0004.12
2022-10-10 11:15:00,,0829.3,5.00,0.00,27.8,26.2,00.0,36.6,29.6,11.4,0000.0,0007.88,0004.55,0004.12
2022-10-10 11:16:00,,0829.3,5.00,0.00,27.8,26.2,00.0,36.6,29.6,11.4,0000.0,0007.81,0004.52,0004.10
2022-10-10 11:17:00,,0829.3,5.00,0.00,27.8,26.2,00.0,36.6,29.6,11.3,0000.0,0007.78,0004.50,0004.07
2022-10-10 11:18:00,,0829.3,5.00,0.00,27.8,26.2,00.0,36.6,29.6,11.3,0000.0,0007.77,0004.48,0004.06
2022-10-10 11:19:00,,0829.3,4.98,0.00,27.8,26.2,00.0,36.6,29.6,11.3,0000.0,0007.63,0004.46,0004.07
2022-10-10 11:20:00,,0829.3,5.01,0.00,27.8,26.2,00.0,36.6,29.6,11.3,0000.0,0007.41,0004.44,0004.08
2022-10-10 11:21:00,,0829.3,4.99,0.00,27.8,26.2,00.0,36.6,29.7,11.6,0000.0,0008.13,0004.40,0004.09
2022-10-10 11:22:00,,0829.3,5.00,0.00,27.8,26.2,00.0,36.6,29.7,11.7,0000.0,0008.69,0004.41,0004.10
2022-10-10 11:23:00,,0829.3,5.01,0.00,27.8,26.2,00.0,36.6,29.7,11.6,0000.0,0008.67,0004.41,0004.11
2022-10-10 11:24:00,,0829.3,4.99,0.00,27.8,26.2,00.0,36.6,29.7,11.4,0000.0,0008.69,0004.42,0004.12
2022-10-10 11:25:00,,0829.3,5.00,0.00,27.8,26.2,00.0,36.6,29.7,11.2,0000.0,0008.63,0004.41,0004.12
2022-10-10 11:26:00,,0829.2,5.01,0.00,27.8,26.2,00.0,36.6,29.6,10.8,0000.0,0008.53,0004.35,0004.09
2022-10-10 11:27:00,,0829.3,4.98,0.00,27.8,26.3,00.0,36.6,29.7,10.7,0000.0,0008.47,0004.32,0004.07
2022-10-10 11:28:00,,0829.2,5.01,0.00,27.8,26.2,00.0,36.6,29.7,11.2,0000.0,0008.48,0004.30,0004.06
2022-10-10 11:29:00,,0829.0,5.01,0.00,27.8,26.2,00.0,36.6,29.7,11.1,0000.0,0008.55,0004.31,0004.04
2022-10-10 11:30:00,,0829.0,4.99,0.00,27.8,26.2,00.0,36.6,29.7,10.9,0000.0,0008.56,0004.28,0004.00
2022-10-10 11:31:00,,0828.8,5.01,0.00,27.8,26.2,00.0,36.6,29.6,10.8,0000.0,0008.42,0004.24,0003.96
2022-10-10 11:32:00,,0829.1,5.00,0.00,27.8,26.2,00.0,36.6,29.6,10.7,0000.0,0007.61,0004.23,0003.92
2022-10-10 11:33:00,,0828.9,5.00,0.00,27.7,26.2,00.0,36.6,29.6,10.9,0000.0,0006.70,0004.20,0003.88
2022-10-10 11:34:00,,0828.8,4.99,0.00,27.7,26.2,00.0,36.6,29.6,10.8,0000.0,0006.61,0004.19,0003.85
2022-10-10 11:35:00,,0829.1,5.01,0.00,27.7,26.1,00.0,36.6,29.6,10.7,0000.0,0006.47,0004.13,0003.81
2022-10-10 11:36:00,,0829.4,5.00,0.00,27.7,26.0,00.0,36.6,29.5,10.8,0000.0,0006.31,0004.09,0003.77
2022-10-10 11:37:00,,0829.3,4.99,0.00,27.7,25.9,00.0,36.6,29.5,10.9,0000.0,0006.32,0004.10,0003.77
2022-10-10 11:38:00,,0829.4,5.01,0.00,27.6,25.9,00.0,36.5,29.5,11.0,0000.0,0006.49,0004.12,0003.78
2022-10-10 11:39:00,,0829.3,5.01,0.00,27.6,25.8,00.0,36.5,29.4,10.9,0000.0,0006.54,0004.12,0003.79
2022-10-10 11:40:00,,0829.1,5.00,0.00,27.6,25.8,00.0,36.5,29.4,11.1,0000.0,0006.33,0004.10,0003.79
2022-10-10 11:41:00,,0828.8,4.99,0.00,27.6,25.8,00.0,36.5,29.4,11.2,0000.0,0006.22,0004.10,0003.81
2022-10-10 11:42:00,,0828.9,5.01,0.00,27.5,25.8,00.0,36.5,29.3,11.3,0000.0,0006.22,0004.12,0003.82
2022-10-10 11:43:00,,0828.8,5.00,0.00,27.5,25.8,00.0,36.5,29.3,11.3,0000.0,0006.00,0004.11,0003.83
2022-10-10 11:44:00,,0828.9,4.99,0.00,27.5,25.8,00.0,36.4,29.3,11.3,0000.0,0006.02,0004.12,0003.85
2022-10-10 11:45:00,,0828.9,5.01,0.00,27.5,25.8,00.0,36.4,29.4,11.4,0000.0,0005.94,0004.13,0003.87
2022-10-10 11:46:00,,0828.8,4.99,0.00,27.5,25.8,00.0,36.4,29.3,11.4,0000.0,0006.44,0004.16,0003.89
2022-10-10 11:47:00,,0828.9,4.99,0.00,27.5,25.8,00.0,36.4,29.3,11.5,0000.0,0006.62,0004.20,0003.92
2022-10-10 11:48:00,,0828.8,5.01,0.00,27.5,25.8,00.0,36.4,29.3,11.5,0000.0,0006.60,0004.22,0003.95
2022-10-10 11:49:00,,0828.9,4.98,0.00,27.5,25.8,00.0,36.4,29.3,11.5,0000.0,0006.62,0004.25,0003.96
2022-10-10 11:50:00,,0829.1,5.01,0.00,27.5,25.8,00.0,36.4,29.3,11.6,0000.0,0006.63,0004.28,0003.98
2022-10-10 11:51:00,,0829.1,4.99,0.00,27.5,25.8,00.0,36.4,29.3,11.6,0000.0,0006.59,0004.27,0004.00
2022-10-10 11:52:00,,0828.8,5.01,0.00,27.5,25.8,00.0,36.3,29.3,11.6,0000.0,0006.76,0004.32,0004.00
2022-10-10 11:53:00,,0828.8,5.01,0.00,27.5,25.8,00.0,36.3,29.3,11.6,0000.0,0006.88,0004.34,0004.01
2022-10-10 11:54:00,,0828.8,4.99,0.00,27.5,25.8,00.0,36.3,29.3,11.6,0000.0,0006.97,0004.36,0004.01
2022-10-10 11:55:00,,0828.8,5.01,0.00,27.4,25.9,00.0,36.3,29.3,11.7,0000.0,0007.18,0004.34,0004.01
2022-10-10 11:56:00,,0828.9,5.00,0.00,27.4,25.9,00.0,36.3,29.3,11.8,0000.0,0007.33,0004.33,0004.00
2022-10-10 11:57:00,,0828.9,5.00,0.00,27.5,25.9,00.0,36.3,29.3,12.0,0000.0,0007.10,0004.34,0004.00
2022-10-10 11:58:00,,0828.9,4.99,0.00,27.5,25.9,00.0,36.3,29.4,12.1,0000.0,0006.99,0004.35,0004.01
2022-10-10 11:59:00,,0828.9,5.02,0.00,27.5,25.9,00.0,36.3,29.4,12.2,0000.0,0007.21,0004.40,0004.02
